Location: C.E.K. Mees Observatory
(42.7003°N, 77.4088°W)
Time: 13:44:25
(UTC-04:00)

Tiangong 1 - Pass Details

Date: 08 October 2017
Orbit: 293 x 320 km, 42.8° (Epoch: 21 October)

Event Time Altitude Azimuth Distance (km) Brightness Sun altitude
Rises 20:32:10 0° 270° (W) 2,030 6.1 -21.6°
Reaches altitude 10° 20:34:09 10° 271° (W) 1,196 4.6 -22.0°
Enters shadow 20:35:30 26° 272° (W) 653 2.9 -22.2°
